Home > Weather > Hückelhoven > Past weeks

Flag for Germany Weather for the Past 2 Weeks in Hückelhoven, North Rhine-Westphalia, Germany

Now
37 °F

Light rain. Passing clouds.


Feels Like: 32 °F
Forecast: 36 / 41 °F
Wind: 7 mph from East

Location: Monchengladbach Airport

Current Time: Feb 13, 2016 at 8:39:39 PM

Latest Report: Feb 13, 2016 at 7:50 PM


Visibility: 4 mi

Pressure: 29.06 "Hg

Humidity: 100%

Dew point: 37 °F

Location of HückelhovenLocation

Historic Weather in Hückelhoven — Graph

°F

Hückelhoven Temperature Yesterday

Maximum temperature yesterday: 43 °F (at 1:20 PM)
Minimum temperature yesterday: 36 °F (at 7:50 PM)
Average temperature yesterday: 40 °F

High & Low Weather Summary for the Past Weeks

 TemperatureHumidityPressure
High54 °F (Feb 1, 12:20 PM)100% (Jan 30, 7:50 AM)30.24 "Hg (Jan 30, 7:50 AM)
Low30 °F (Feb 13, 7:50 AM)58% (Feb 7, 4:20 PM)28.80 "Hg (Feb 9, 4:20 PM)
Average44 °F89%29.69 "Hg
* Reported Jan 29 7:20 PM — Feb 13 7:20 PM, Hückelhoven, Weather by CustomWeather, © 2016

Note: Actual official high and low records may vary slightly from our data, if they occured in-between our weather recording intervals... More about our weather records

Advertising

Hückelhoven Weather History for the Previous 24 Hours

 ConditionsComfort  
Time TempWeatherWind HumidityBarometerVisibility
7:20 PM
Sat, Feb 13
37 °FLight rain. Passing clouds.9 mph100%29.06 "Hg4 mi
6:50 PM37 °FLight rain. Passing clouds.12 mph100%29.06 "Hg3 mi
6:20 PM37 °FLight rain. Passing clouds.13 mph100%29.06 "Hg4 mi
5:50 PM37 °FLight rain. Passing clouds.12 mph100%29.09 "Hg4 mi
5:20 PM37 °FLight rain. Passing clouds.14 mph100%29.09 "Hg3 mi
4:50 PM37 °FRain. Passing clouds.15 mph100%29.09 "Hg2 mi
4:20 PM37 °FLight rain. Passing clouds.16 mph100%29.12 "Hg3 mi
3:50 PM39 °FLight rain. Partly cloudy.15 mph93%29.12 "Hg4 mi
3:20 PM39 °FLight rain. Passing clouds.13 mph87%29.12 "HgN/A
2:50 PM39 °FSprinkles. Passing clouds.14 mph87%29.15 "HgN/A
2:20 PM39 °FPartly cloudy.15 mph81%29.15 "HgN/A
1:50 PM39 °FPassing clouds.13 mph87%29.18 "HgN/A
1:20 PM39 °FPartly cloudy.18 mph81%29.18 "HgN/A
12:50 PM37 °FPartly cloudy.12 mph87%29.21 "HgN/A
12:20 PM37 °FPassing clouds.12 mph87%29.24 "HgN/A
11:50 AM37 °FPassing clouds.7 mph81%29.24 "HgN/A
11:20 AM36 °FPassing clouds.8 mph93%29.24 "HgN/A
10:50 AM34 °FClear.9 mph100%29.27 "Hg10 mi
10:20 AM34 °FClear.12 mph93%29.27 "Hg10 mi
9:50 AM34 °FClear.8 mph93%29.30 "Hg10 mi
9:20 AM32 °FClear.6 mph100%29.30 "Hg10 mi
8:50 AM32 °FSunny.3 mph100%29.33 "Hg10 mi
8:20 AM30 °FSunny.5 mph100%29.33 "Hg10 mi
7:50 AM30 °FSunny.5 mph100%29.33 "Hg10 mi
Weather by CustomWeather, © 2016

See weather overviewHow to use our weather pages